Frenchville, ME

12:56 PM EDT on April 28, 2017 (GMT -0400)
Northern Aroostook Regional

Weather History for KFVE - January, 2014

Change the Weather History Date:

Tuesday, January 21, 2014

  Actual Average Record
Temperature  
Mean Temperature -8 °F 8 °F  
Max Temperature -2 °F 17 °F 32 °F (2006)
Min Temperature -15 °F 0 °F -18 °F (2008)
Degree Days  
Heating Degree Days 73    
Month to date heating degree days 1108  
Since 1 July heating degree days 4812  
Cooling Degree Days 0    
Month to date cooling degree days 0  
Year to date cooling degree days 0  
Moisture  
Dew Point -16 °F    
Average Humidity 71    
Maximum Humidity 79    
Minimum Humidity 59    
Precipitation  
Precipitation T in 0.02 in 0.29 in (2006)
Month to date precipitation 1.73 1.44  
Year to date precipitation 1.73 1.44  
Sea Level Pressure  
Sea Level Pressure 29.93 in    
Wind  
Wind Speed 8 mph (West)    
Max Wind Speed 17 mph    
Max Gust Speed 22 mph    
Visibility 9 miles    
Events      
T = Trace of Precipitation, MM = Missing Value Source: NWS Daily Summary

Daily Weather History Graph

Daily Weather History Graph

Search for Another Location

Airport or City:

Trip Planner

Search our weather history database for the weather conditions in past years. The results will help you decide how hot, cold, wet, or windy it might be!

Date:

Astronomy

Jan. 21, 2014 Rise Set
Actual Time 7:10 AM EST 4:18 PM EST
Civil Twilight 6:37 AM EST 4:52 PM EST
Nautical Twilight 5:59 AM EST 5:30 PM EST
Astronomical Twilight 5:23 AM EST 6:06 PM EST
Moon 10:13 PM EST (1/21) 9:15 AM EST (1/21)
Length of Visible Light 10h 15m
Length of Day
9h 07m
Waning Gibbous, 75% of the Moon is Illuminated
Jan 21
Waning Gibbous
Jan 24
Last Quarter
Jan 30
New
Feb 6
First Quarter
Feb 14
Full

Hourly Weather History & Observations

Time (EST) Temp. Windchill Dew Point Humidity Pressure Visibility Wind Dir Wind Speed Gust Speed Precip Events Conditions
12:53 AM -9.9 °F -24.9 °F -15.0 °F 78% 29.75 in 10.0 mi West 6.9 mph - N/A   Mostly Cloudy
1:53 AM -11.0 °F - -16.1 °F 78% 29.78 in 10.0 mi Calm Calm - N/A   Clear
2:53 AM -9.9 °F -29.6 °F -16.1 °F 74% 29.77 in 10.0 mi NW 11.5 mph 19.6 mph N/A   Clear
3:53 AM -9.9 °F -28.6 °F -17.0 °F 71% 29.80 in 10.0 mi West 10.4 mph - N/A   Clear
4:53 AM -11.0 °F -30.9 °F -17.0 °F 75% 29.82 in 10.0 mi WNW 11.5 mph - N/A   Clear
5:53 AM -11.9 °F -23.8 °F -18.0 °F 74% 29.86 in 10.0 mi Variable 4.6 mph - N/A   Clear
6:53 AM -13.0 °F -27.0 °F -18.0 °F 78% 29.88 in 10.0 mi SSW 5.8 mph - N/A   Clear
7:34 AM -14.1 °F -29.9 °F -18.9 °F 79% 29.82 in 10.0 mi SW 6.9 mph - N/A   Mostly Cloudy
7:53 AM -13.0 °F -30.0 °F -18.0 °F 78% 29.91 in 7.0 mi West 8.1 mph - N/A   Overcast
8:05 AM -13.0 °F -30.0 °F -18.0 °F 78% 29.83 in 5.0 mi West 8.1 mph - N/A   Haze
8:16 AM -13.0 °F -30.0 °F -18.0 °F 78% 29.83 in 5.0 mi West 8.1 mph - N/A   Haze
8:34 AM -13.0 °F -33.4 °F -18.9 °F 75% 29.83 in 10.0 mi West 11.5 mph - N/A   Scattered Clouds
8:53 AM -11.9 °F -32.0 °F -18.9 °F 71% 29.93 in 4.0 mi West 11.5 mph - N/A   Haze
9:53 AM -9.9 °F -28.6 °F -17.0 °F 71% 29.95 in 9.0 mi West 10.4 mph - N/A   Mostly Cloudy
10:53 AM -8.0 °F -30.3 °F -16.1 °F 68% 29.95 in 9.0 mi West 16.1 mph - N/A   Mostly Cloudy
11:10 AM -7.1 °F -27.6 °F -16.1 °F 65% 29.87 in 9.0 mi WNW 13.8 mph - N/A   Mostly Cloudy
11:53 AM -7.1 °F -23.9 °F -15.0 °F 68% 29.95 in 8.0 mi WNW 9.2 mph - N/A   Overcast
12:31 PM -5.1 °F -25.1 °F -15.0 °F 62% 29.87 in 10.0 mi West 13.8 mph - N/A   Scattered Clouds
12:53 PM -5.1 °F -21.5 °F -15.0 °F 62% 29.95 in 10.0 mi West 9.2 mph - N/A   Clear
1:53 PM -4.0 °F -20.2 °F -13.0 °F 65% 29.96 in 10.0 mi SSW 9.2 mph - N/A   Clear
2:53 PM -2.9 °F -18.8 °F -14.1 °F 59% 29.99 in 10.0 mi SW 9.2 mph - 0.00 in   Clear
3:53 PM -2.9 °F -16.5 °F -14.1 °F 59% 30.01 in 10.0 mi WNW 6.9 mph - N/A   Clear
4:53 PM -5.1 °F -19.1 °F -14.1 °F 65% 30.04 in 10.0 mi WNW 6.9 mph - N/A   Clear
5:53 PM -6.0 °F -20.1 °F -15.0 °F 65% 30.06 in 10.0 mi WNW 6.9 mph - N/A   Clear
6:53 PM -8.0 °F -23.9 °F -16.1 °F 68% 30.03 in 10.0 mi NW 8.1 mph - N/A   Clear
7:53 PM -7.1 °F -21.4 °F -16.1 °F 65% 30.03 in 10.0 mi NW 6.9 mph - N/A   Clear
8:53 PM -9.9 °F -23.4 °F -16.1 °F 74% 30.07 in 10.0 mi West 5.8 mph - N/A   Scattered Clouds
9:02 PM -9.0 °F -23.8 °F -16.1 °F 71% 29.98 in 10.0 mi West 6.9 mph - N/A   Mostly Cloudy
9:23 PM -9.0 °F -26.4 °F -16.1 °F 71% 29.98 in 10.0 mi WNW 9.2 mph - N/A   Scattered Clouds
9:53 PM -9.9 °F -23.4 °F -17.0 °F 71% 30.07 in 10.0 mi NW 5.8 mph - N/A   Clear
10:53 PM -11.0 °F -30.9 °F -16.1 °F 78% 30.06 in 10.0 mi NNW 11.5 mph - N/A   Clear
11:53 PM -11.0 °F -27.6 °F -16.1 °F 78% 30.06 in 10.0 mi NW 8.1 mph - N/A   Clear